Time,TemperatureF,DewpointF,PressureIn,WindDirection,WindDirectionDegrees,WindSpeedMPH,WindSpeedGustMPH,Humidity,HourlyPrecipIn,Conditions,Clouds,dailyrainin,SoftwareType,DateUTC
2013-05-06 00:02:00,44.0,41.0,29.76,SSE,165,0.0,0.0,89,0.00,,,0.00,,2013-05-06 04:02:00,
2013-05-06 00:12:00,44.0,41.0,29.76,SSE,165,0.0,0.0,89,0.00,,,0.00,,2013-05-06 04:12:00,
2013-05-06 00:23:00,44.0,41.0,29.76,ENE,67,0.0,1.0,89,0.00,,,0.00,,2013-05-06 04:23:00,
2013-05-06 00:32:00,44.0,41.0,29.76,ESE,103,0.0,0.0,89,0.00,,,0.00,,2013-05-06 04:32:00,
2013-05-06 00:43:00,44.0,41.0,29.76,ESE,103,0.0,0.0,89,0.00,,,0.00,,2013-05-06 04:43:00,
2013-05-06 00:52:00,43.0,40.0,29.75,ESE,103,0.0,0.0,89,0.00,,,0.00,,2013-05-06 04:52:00,
2013-05-06 01:02:00,43.0,40.0,29.75,NE,48,0.0,1.0,89,0.00,,,0.00,,2013-05-06 05:02:00,
2013-05-06 01:12:00,43.0,40.0,29.75,NE,48,0.0,1.0,89,0.00,,,0.00,,2013-05-06 05:12:00,
2013-05-06 01:22:00,43.0,40.0,29.75,NE,48,0.0,0.0,90,0.00,,,0.00,,2013-05-06 05:22:00,
2013-05-06 01:32:00,43.0,40.0,29.75,NE,48,0.0,0.0,90,0.00,,,0.00,,2013-05-06 05:32:00,
2013-05-06 01:42:00,43.0,40.0,29.75,NE,48,0.0,0.0,90,0.00,,,0.00,,2013-05-06 05:42:00,
2013-05-06 01:52:00,43.0,40.0,29.75,NE,48,0.0,0.0,90,0.00,,,0.00,,2013-05-06 05:52:00,
2013-05-06 02:02:00,42.0,39.0,29.74,NE,48,0.0,0.0,90,0.00,,,0.00,,2013-05-06 06:02:00,
2013-05-06 02:12:00,42.0,39.0,29.74,NE,48,0.0,0.0,90,0.00,,,0.00,,2013-05-06 06:12:00,
2013-05-06 02:21:00,42.0,39.0,29.74,NE,48,0.0,0.0,90,0.00,,,0.00,,2013-05-06 06:21:00,
2013-05-06 02:32:00,42.0,40.0,29.74,NE,48,0.0,0.0,91,0.00,,,0.00,,2013-05-06 06:32:00,
2013-05-06 02:42:00,42.0,40.0,29.74,NE,48,0.0,0.0,91,0.00,,,0.00,,2013-05-06 06:42:00,
2013-05-06 02:52:00,42.0,40.0,29.74,NE,48,0.0,0.0,91,0.00,,,0.00,,2013-05-06 06:52:00,
2013-05-06 03:01:00,42.0,40.0,29.74,NE,48,0.0,0.0,91,0.00,,,0.00,,2013-05-06 07:01:00,
2013-05-06 03:11:00,42.0,40.0,29.74,NE,48,0.0,0.0,91,0.00,,,0.00,,2013-05-06 07:11:00,
2013-05-06 03:22:00,42.0,40.0,29.73,NE,48,0.0,1.0,92,0.00,,,0.00,,2013-05-06 07:22:00,
2013-05-06 03:32:00,43.0,41.0,29.73,ENE,74,0.0,2.0,92,0.00,,,0.00,,2013-05-06 07:32:00,
2013-05-06 03:42:00,43.0,41.0,29.73,ENE,74,0.0,2.0,92,0.00,,,0.00,,2013-05-06 07:42:00,
2013-05-06 03:52:00,43.0,41.0,29.73,SE,136,0.0,3.0,92,0.00,,,0.00,,2013-05-06 07:52:00,
2013-05-06 04:02:00,44.0,42.0,29.73,SSE,167,0.0,5.0,92,0.00,,,0.00,,2013-05-06 08:02:00,
2013-05-06 04:12:00,44.0,42.0,29.73,SSE,167,0.0,5.0,92,0.00,,,0.00,,2013-05-06 08:12:00,
2013-05-06 04:22:00,43.0,41.0,29.73,NE,51,0.0,5.0,92,0.00,,,0.00,,2013-05-06 08:22:00,
2013-05-06 04:32:00,43.0,41.0,29.73,ESE,105,0.0,3.0,92,0.00,,,0.00,,2013-05-06 08:32:00,
2013-05-06 04:42:00,43.0,41.0,29.73,ESE,105,0.0,3.0,92,0.00,,,0.00,,2013-05-06 08:42:00,
2013-05-06 04:52:00,44.0,42.0,29.74,ESE,105,0.0,1.0,92,0.00,,,0.00,,2013-05-06 08:52:00,
2013-05-06 05:02:00,44.0,42.0,29.74,ENE,64,0.0,2.0,92,0.00,,,0.00,,2013-05-06 09:02:00,
2013-05-06 05:11:00,44.0,42.0,29.74,ENE,64,0.0,2.0,92,0.00,,,0.00,,2013-05-06 09:11:00,
2013-05-06 05:22:00,44.0,42.0,29.74,ENE,64,0.0,1.0,92,0.00,,,0.00,,2013-05-06 09:22:00,
2013-05-06 05:33:00,44.0,42.0,29.74,SSE,161,0.0,3.0,92,0.00,,,0.00,,2013-05-06 09:33:00,
2013-05-06 05:43:00,44.0,42.0,29.74,SSE,161,0.0,3.0,92,0.00,,,0.00,,2013-05-06 09:43:00,
2013-05-06 05:53:00,44.0,42.0,29.75,ENE,71,0.0,0.0,92,0.00,,,0.00,,2013-05-06 09:53:00,
2013-05-06 06:03:00,44.0,42.0,29.75,ENE,71,0.0,4.0,92,0.00,,,0.00,,2013-05-06 10:03:00,
2013-05-06 06:12:00,44.0,42.0,29.75,ENE,71,0.0,4.0,92,0.00,,,0.00,,2013-05-06 10:12:00,
2013-05-06 06:22:00,44.0,42.0,29.75,ENE,77,0.0,1.0,93,0.00,,,0.00,,2013-05-06 10:22:00,
2013-05-06 06:33:00,44.0,42.0,29.75,ENE,57,0.0,2.0,93,0.00,,,0.00,,2013-05-06 10:33:00,
2013-05-06 06:42:00,44.0,42.0,29.75,ENE,57,0.0,2.0,93,0.00,,,0.00,,2013-05-06 10:42:00,
2013-05-06 06:52:00,44.0,42.0,29.76,ENE,78,0.0,2.0,93,0.00,,,0.00,,2013-05-06 10:52:00,
2013-05-06 07:02:00,45.0,43.0,29.76,East,79,0.0,1.0,93,0.00,,,0.00,,2013-05-06 11:02:00,
2013-05-06 07:12:00,45.0,43.0,29.76,East,79,0.0,1.0,93,0.00,,,0.00,,2013-05-06 11:12:00,
2013-05-06 07:22:00,46.0,44.0,29.76,NE,36,0.0,2.0,92,0.00,,,0.00,,2013-05-06 11:22:00,
2013-05-06 07:32:00,46.0,44.0,29.77,East,98,0.0,0.0,92,0.00,,,0.00,,2013-05-06 11:32:00,
2013-05-06 07:42:00,46.0,44.0,29.77,East,98,0.0,0.0,92,0.00,,,0.00,,2013-05-06 11:42:00,
2013-05-06 07:52:00,46.0,44.0,29.78,ESE,103,0.0,2.0,91,0.00,,,0.00,,2013-05-06 11:52:00,
2013-05-06 08:02:00,46.0,44.0,29.78,ENE,75,0.0,1.0,91,0.00,,,0.00,,2013-05-06 12:02:00,
2013-05-06 08:12:00,46.0,44.0,29.78,ENE,75,0.0,1.0,91,0.00,,,0.00,,2013-05-06 12:12:00,
2013-05-06 08:21:00,46.0,43.0,29.78,East,81,0.0,3.0,90,0.00,,,0.00,,2013-05-06 12:21:00,
2013-05-06 08:32:00,46.0,43.0,29.78,SE,127,0.0,1.0,90,0.00,,,0.00,,2013-05-06 12:32:00,
2013-05-06 08:42:00,46.0,43.0,29.78,SE,127,0.0,1.0,90,0.00,,,0.00,,2013-05-06 12:42:00,
2013-05-06 08:52:00,47.0,44.0,29.78,ESE,115,0.0,1.0,90,0.00,,,0.00,,2013-05-06 12:52:00,
2013-05-06 09:01:00,48.0,44.0,29.78,ENE,68,0.0,2.0,86,0.00,,,0.00,,2013-05-06 13:01:00,
2013-05-06 09:11:00,48.0,44.0,29.78,ENE,68,0.0,2.0,86,0.00,,,0.00,,2013-05-06 13:11:00,
2013-05-06 09:21:00,49.0,45.0,29.78,ENE,70,0.0,3.0,86,0.00,,,0.00,,2013-05-06 13:21:00,
2013-05-06 09:32:00,51.0,46.0,29.78,East,86,0.0,1.0,83,0.00,,,0.00,,2013-05-06 13:32:00,
2013-05-06 09:42:00,51.0,46.0,29.78,East,86,0.0,1.0,83,0.00,,,0.00,,2013-05-06 13:42:00,
2013-05-06 09:52:00,51.0,45.0,29.78,ESE,119,0.0,2.0,81,0.00,,,0.00,,2013-05-06 13:52:00,
2013-05-06 10:01:00,53.0,47.0,29.78,SE,144,0.0,1.0,79,0.00,,,0.00,,2013-05-06 14:01:00,
2013-05-06 10:11:00,53.0,47.0,29.78,SE,144,0.0,1.0,79,0.00,,,0.00,,2013-05-06 14:11:00,
2013-05-06 10:21:00,54.0,46.0,29.78,SSE,150,1.0,4.0,75,0.00,,,0.00,,2013-05-06 14:21:00,
2013-05-06 10:32:00,55.0,46.0,29.78,ESE,118,0.0,4.0,72,0.00,,,0.00,,2013-05-06 14:32:00,
2013-05-06 10:42:00,55.0,46.0,29.78,ESE,118,0.0,4.0,72,0.00,,,0.00,,2013-05-06 14:42:00,
2013-05-06 10:51:00,56.0,47.0,29.78,SSE,149,1.0,4.0,72,0.00,,,0.00,,2013-05-06 14:51:00,
2013-05-06 11:01:00,58.0,47.0,29.78,NNW,342,0.0,5.0,68,0.00,,,0.00,,2013-05-06 15:01:00,
2013-05-06 11:11:00,58.0,47.0,29.78,NNW,342,0.0,5.0,68,0.00,,,0.00,,2013-05-06 15:11:00,
2013-05-06 11:21:00,57.0,47.0,29.77,SSE,155,1.0,4.0,70,0.00,,,0.00,,2013-05-06 15:21:00,
2013-05-06 11:33:00,60.0,49.0,29.77,SE,142,1.0,5.0,68,0.00,,,0.00,,2013-05-06 15:33:00,
2013-05-06 11:42:00,60.0,49.0,29.77,SE,142,1.0,5.0,68,0.00,,,0.00,,2013-05-06 15:42:00,
2013-05-06 11:53:00,58.0,47.0,29.77,NE,40,0.0,5.0,68,0.00,,,0.00,,2013-05-06 15:53:00,
2013-05-06 12:03:00,62.0,50.0,29.77,SE,134,0.0,5.0,65,0.00,,,0.00,,2013-05-06 16:03:00,
2013-05-06 12:13:00,62.0,50.0,29.77,SE,134,0.0,5.0,65,0.00,,,0.00,,2013-05-06 16:13:00,
2013-05-06 12:23:00,61.0,49.0,29.76,WNW,298,1.0,4.0,64,0.00,,,0.00,,2013-05-06 16:23:00,
2013-05-06 12:33:00,63.0,50.0,29.76,South,177,0.0,3.0,62,0.00,,,0.00,,2013-05-06 16:33:00,
2013-05-06 12:42:00,63.0,50.0,29.76,South,177,0.0,3.0,62,0.00,,,0.00,,2013-05-06 16:42:00,
2013-05-06 12:52:00,63.0,49.0,29.75,West,271,0.0,3.0,61,0.00,,,0.00,,2013-05-06 16:52:00,
2013-05-06 13:03:00,63.0,50.0,29.74,NW,305,1.0,5.0,63,0.00,,,0.00,,2013-05-06 17:03:00,
2013-05-06 13:12:00,63.0,50.0,29.74,NW,305,1.0,5.0,63,0.00,,,0.00,,2013-05-06 17:12:00,
2013-05-06 13:23:00,64.0,50.0,29.74,NW,304,1.0,6.0,61,0.00,,,0.00,,2013-05-06 17:23:00,
2013-05-06 13:32:00,65.0,50.0,29.73,East,86,1.0,5.0,59,0.00,,,0.00,,2013-05-06 17:32:00,
2013-05-06 13:42:00,65.0,50.0,29.73,East,86,1.0,5.0,59,0.00,,,0.00,,2013-05-06 17:42:00,
2013-05-06 13:52:00,64.0,50.0,29.73,SE,145,1.0,5.0,61,0.00,,,0.00,,2013-05-06 17:52:00,
2013-05-06 14:01:00,65.0,51.0,29.73,SW,222,0.0,3.0,61,0.00,,,0.00,,2013-05-06 18:01:00,
2013-05-06 14:12:00,65.0,51.0,29.73,SW,222,0.0,3.0,61,0.00,,,0.00,,2013-05-06 18:12:00,
2013-05-06 14:22:00,64.0,51.0,29.73,South,180,0.0,4.0,62,0.00,,,0.00,,2013-05-06 18:22:00,
2013-05-06 14:32:00,64.0,50.0,29.72,WNW,291,1.0,3.0,61,0.00,,,0.00,,2013-05-06 18:32:00,
2013-05-06 14:43:00,64.0,50.0,29.72,WNW,291,1.0,3.0,61,0.00,,,0.00,,2013-05-06 18:43:00,
2013-05-06 14:52:00,64.0,49.0,29.72,North,355,0.0,4.0,59,0.00,,,0.00,,2013-05-06 18:52:00,
2013-05-06 15:01:00,65.0,49.0,29.71,SW,232,0.0,4.0,57,0.00,,,0.00,,2013-05-06 19:01:00,
2013-05-06 15:11:00,65.0,49.0,29.71,SW,232,0.0,4.0,57,0.00,,,0.00,,2013-05-06 19:11:00,
2013-05-06 15:22:00,64.0,49.0,29.71,South,189,0.0,5.0,58,0.00,,,0.00,,2013-05-06 19:22:00,
2013-05-06 15:32:00,65.0,50.0,29.70,SSW,197,0.0,5.0,58,0.00,,,0.00,,2013-05-06 19:32:00,
2013-05-06 15:41:00,65.0,50.0,29.70,SSW,197,0.0,5.0,58,0.00,,,0.00,,2013-05-06 19:41:00,
2013-05-06 15:52:00,65.0,50.0,29.70,East,91,1.0,4.0,59,0.00,,,0.00,,2013-05-06 19:52:00,
2013-05-06 16:02:00,65.0,51.0,29.70,SSE,161,1.0,4.0,61,0.00,,,0.00,,2013-05-06 20:02:00,
2013-05-06 16:11:00,65.0,51.0,29.70,SSE,161,1.0,4.0,61,0.00,,,0.00,,2013-05-06 20:11:00,
2013-05-06 16:21:00,65.0,52.0,29.69,South,188,1.0,5.0,62,0.00,,,0.00,,2013-05-06 20:21:00,
2013-05-06 16:32:00,65.0,51.0,29.69,SW,227,0.0,3.0,61,0.00,,,0.00,,2013-05-06 20:32:00,
2013-05-06 16:42:00,65.0,51.0,29.69,SW,227,0.0,3.0,61,0.00,,,0.00,,2013-05-06 20:42:00,
2013-05-06 16:52:00,65.0,51.0,29.68,SW,214,0.0,2.0,61,0.00,,,0.00,,2013-05-06 20:52:00,
2013-05-06 17:01:00,64.0,51.0,29.68,SE,131,1.0,4.0,63,0.00,,,0.00,,2013-05-06 21:01:00,
2013-05-06 17:11:00,64.0,51.0,29.68,SE,131,1.0,4.0,63,0.00,,,0.00,,2013-05-06 21:11:00,
2013-05-06 17:21:00,64.0,52.0,29.68,SSE,152,1.0,5.0,64,0.00,,,0.00,,2013-05-06 21:21:00,
2013-05-06 17:33:00,64.0,51.0,29.67,ESE,115,0.0,1.0,63,0.00,,,0.00,,2013-05-06 21:33:00,
2013-05-06 17:43:00,64.0,51.0,29.67,ESE,115,0.0,1.0,63,0.00,,,0.00,,2013-05-06 21:43:00,
2013-05-06 17:53:00,64.0,52.0,29.68,SSE,148,1.0,5.0,64,0.00,,,0.00,,2013-05-06 21:53:00,
2013-05-06 18:03:00,63.0,51.0,29.68,SSE,154,0.0,5.0,65,0.00,,,0.00,,2013-05-06 22:03:00,
2013-05-06 18:12:00,63.0,51.0,29.68,SSE,154,0.0,5.0,65,0.00,,,0.00,,2013-05-06 22:12:00,
2013-05-06 18:22:00,63.0,51.0,29.68,SE,146,1.0,4.0,66,0.00,,,0.00,,2013-05-06 22:22:00,
2013-05-06 18:33:00,63.0,51.0,29.67,South,184,0.0,1.0,66,0.00,,,0.00,,2013-05-06 22:33:00,
2013-05-06 18:45:00,63.0,51.0,29.67,South,184,0.0,1.0,66,0.00,,,0.00,,2013-05-06 22:45:00,
2013-05-06 18:52:00,62.0,51.0,29.67,SSW,205,0.0,3.0,66,0.00,,,0.00,,2013-05-06 22:52:00,
2013-05-06 19:03:00,62.0,51.0,29.68,SW,223,0.0,4.0,67,0.00,,,0.00,,2013-05-06 23:03:00,
2013-05-06 19:12:00,62.0,51.0,29.68,SW,223,0.0,4.0,67,0.00,,,0.00,,2013-05-06 23:12:00,
2013-05-06 19:22:00,61.0,50.0,29.68,SW,223,0.0,1.0,68,0.00,,,0.00,,2013-05-06 23:22:00,
2013-05-06 19:32:00,60.0,49.0,29.68,ENE,74,0.0,2.0,68,0.00,,,0.00,,2013-05-06 23:32:00,
2013-05-06 19:42:00,60.0,49.0,29.68,ENE,74,0.0,2.0,68,0.00,,,0.00,,2013-05-06 23:42:00,
2013-05-06 19:52:00,59.0,48.0,29.68,ENE,69,0.0,0.0,68,0.00,,,0.00,,2013-05-06 23:52:00,
2013-05-06 20:01:00,59.0,49.0,29.68,ENE,69,0.0,1.0,69,0.00,,,0.00,,2013-05-07 00:01:00,
2013-05-06 20:11:00,59.0,49.0,29.68,ENE,69,0.0,1.0,69,0.00,,,0.00,,2013-05-07 00:11:00,
2013-05-06 20:21:00,58.0,49.0,29.69,ENE,69,0.0,0.0,71,0.00,,,0.00,,2013-05-07 00:21:00,
2013-05-06 20:32:00,58.0,49.0,29.69,ENE,69,0.0,0.0,73,0.00,,,0.00,,2013-05-07 00:32:00,
2013-05-06 20:42:00,58.0,49.0,29.69,ENE,69,0.0,0.0,73,0.00,,,0.00,,2013-05-07 00:42:00,
2013-05-06 20:52:00,56.0,48.0,29.69,ENE,69,0.0,0.0,74,0.00,,,0.00,,2013-05-07 00:52:00,
2013-05-06 21:01:00,56.0,48.0,29.69,ENE,69,0.0,0.0,75,0.00,,,0.00,,2013-05-07 01:01:00,
2013-05-06 21:11:00,56.0,48.0,29.69,ENE,69,0.0,0.0,75,0.00,,,0.00,,2013-05-07 01:11:00,
2013-05-06 21:21:00,56.0,49.0,29.70,ENE,69,0.0,0.0,76,0.00,,,0.00,,2013-05-07 01:21:00,
2013-05-06 21:32:00,55.0,48.0,29.70,ENE,69,0.0,0.0,77,0.00,,,0.00,,2013-05-07 01:32:00,
2013-05-06 21:42:00,55.0,48.0,29.70,ENE,69,0.0,0.0,77,0.00,,,0.00,,2013-05-07 01:42:00,
2013-05-06 21:52:00,55.0,48.0,29.70,ENE,69,0.0,0.0,78,0.00,,,0.00,,2013-05-07 01:52:00,
2013-05-06 22:02:00,55.0,48.0,29.70,ENE,69,0.0,0.0,78,0.00,,,0.00,,2013-05-07 02:02:00,
2013-05-06 22:11:00,55.0,48.0,29.70,ENE,69,0.0,0.0,78,0.00,,,0.00,,2013-05-07 02:11:00,
2013-05-06 22:22:00,54.0,48.0,29.71,ENE,69,0.0,0.0,79,0.00,,,0.00,,2013-05-07 02:22:00,
2013-05-06 22:32:00,54.0,48.0,29.71,ENE,69,0.0,0.0,80,0.00,,,0.00,,2013-05-07 02:32:00,
2013-05-06 22:42:00,54.0,48.0,29.71,ENE,69,0.0,0.0,80,0.00,,,0.00,,2013-05-07 02:42:00,
2013-05-06 22:52:00,53.0,47.0,29.70,ENE,69,0.0,0.0,81,0.00,,,0.00,,2013-05-07 02:52:00,
2013-05-06 23:02:00,53.0,47.0,29.70,ENE,69,0.0,0.0,81,0.00,,,0.00,,2013-05-07 03:02:00,
2013-05-06 23:11:00,53.0,47.0,29.70,ENE,69,0.0,0.0,81,0.00,,,0.00,,2013-05-07 03:11:00,
2013-05-06 23:22:00,53.0,48.0,29.70,ENE,69,0.0,0.0,82,0.00,,,0.00,,2013-05-07 03:22:00,
2013-05-06 23:32:00,52.0,47.0,29.69,ENE,69,0.0,0.0,84,0.00,,,0.00,,2013-05-07 03:32:00,
2013-05-06 23:42:00,52.0,47.0,29.69,ENE,69,0.0,0.0,84,0.00,,,0.00,,2013-05-07 03:42:00,
2013-05-06 23:53:00,52.0,47.0,29.69,ENE,69,0.0,0.0,84,0.00,,,0.00,,2013-05-07 03:53:00,